Dewpoint
39 40 40 39 39 40 37 26 13 23 30 21 24 20 22 27 17 20 26 27 23 22 23 21 26 26 24 24 27 29 34 33 26 26 31 31 30 28 28 22 23 19 16 17
38 39 39 40 40 40 33 25 24 28 22 13 14 15 13 16 14 23 15 20 22 21 20 18 20 19 25 23 26 26 28 29 22 26 25 29 31 30 28 26 24 20 17 17
38 37 37 38 40 40 31 25 19 22 21 22 15 15 13 12 18 15 18 12 19 11 9 20 17 15 20 17 19 30 28 26 24 21 25 30 28 32 31 28 27 23 18 19
38 38 36 36 37 39 30 24 19 23 17 16 18 17 15 12 12 13 13 12 15 17 9 6 9 13 12 10 20 20 22 17 20 19 22 26 30 31 32 31 29 27 23 23
35 38 37 37 37 38 29 23 22 22 20 21 17 15 12 16 19 17 10 12 11 12 3 7 10 16 13 11 15 16 22 14 16 14 18 25 25 25 24 32 29 31 31 23
36 37 35 35 37 37 31 28 28 28 19 18 15 14 17 17 19 18 14 13 12 9 12 15 16 16 14 14 12 11 14 17 16 10 14 12 15 14 16 17 13 17 23 15
37 34 35 36 36 37 34 33 33 24 17 16 13 15 17 17 18 16 12 11 12 12 16 15 15 14 14 14 14 16 11 14 16 11 15 5 11 15 14 11 12 14 14 15
34 34 35 35 35 36 33 32 32 25 19 19 17 16 19 23 20 15 16 14 15 16 13 13 11 8 5 7 14 14 16 14 5 7 10 11 10 11 9 9 7 14 12 13
34 34 34 33 34 36 33 31 33 30 20 16 20 22 19 17 12 11 13 16 18 16 17 12 4 4 5 6 7 10 13 16 11 14 6 3 5 10 16 15 3 14 13 12
33 34 33 34 33 35 34 31 36 32 20 24 25 20 23 18 15 11 14 17 15 17 14 11 8 5 13 7 5 7 5 9 10 9 8 3 8 9 13 6 3 13 14 14
33 34 33 33 32 35 33 30 38 33 19 21 27 27 24 25 19 14 14 8 12 14 2 5 4 2 8 6 6 5 -1 0 3 5 1 -2 11 4 2 9 14 14 15 14
33 33 33 33 33 34 34 27 33 35 30 23 30 31 31 27 24 22 20 14 13 17 8 5 5 10 12 7 -3 2 -4 -4 -2 -2 1 10 13 11 14 15 13 12 14 14
34 33 33 33 33 33 34 29 32 32 24 23 19 21 23 25 25 26 17 19 21 15 17 9 14 13 14 4 0 -6 -2 -1 -3 2 3 6 10 10 12 13 13 14 14 14
34 33 33 33 34 34 34 29 32 29 27 19 15 21 22 26 23 23 25 24 24 23 23 10 14 12 11 0 1 -2 -1 -4 -8 -6 -0 7 10 9 11 11 11 12 12 12
34 34 33 33 33 35 32 29 31 31 25 17 17 20 24 23 19 20 22 22 20 21 15 13 10 15 6 1 -0 -5 -2 -7 -9 -7 0 -1 -1 5 11 10 11 12 13 11
33 33 33 32 33 34 30 27 30 31 28 15 12 21 21 16 18 18 17 20 17 12 13 12 12 14 6 -5 -9 -1 2 3 1 1 2 1 4 4 2 4 5 9 11 11
33 33 32 31 31 29 22 21 29 32 30 23 13 15 13 15 21 20 18 17 5 11 11 9 9 5 4 -7 -12 -2 2 4 4 5 6 1 1 1 5 1 3 7 5 4
33 32 32 32 34 31 26 28 32 30 24 16 -2 5 10 12 11 13 19 5 4 8 8 9 2 2 1 -10 -3 -1 3 4 5 5 7 6 7 7 6 5 5 5 7 9
32 32 29 26 19 14 18 28 26 23 18 1 1 2 -0 11 13 19 18 10 3 9 0 0 0 -3 -7 -6 -7 -3 -0 1 3 7 7 9 7 8 8 8 9 8 9 10
30 24 21 20 19 25 25 20 15 14 13 10 3 8 0 9 12 13 12 5 5 -6 2 2 -5 -10 -7 -3 -0 3 5 4 8 6 4 6 6 8 8 8 11 10 11 11
20 19 19 19 21 14 11 10 7 5 -4 7 6 4 -1 10 7 9 13 6 6 -8 5 -4 -15 -15 -5 2 3 7 8 9 8 10 10 9 10 9 8 8 9 9 10 11
22 22 17 13 12 8 -1 -3 4 2 -0 6 0 5 7 9 18 10 9 5 2 -6 5 -6 -15 -6 -2 2 4 6 10 9 6 8 8 7 7 8 7 8 9 9 10 10
16 12 5 6 4 -3 -8 -8 -4 -2 7 8 4 -1 8 12 12 4 2 -4 -3 4 -7 -9 -7 -0 5 6 7 5 5 6 5 4 4 4 5 6 7 7 8 10 9 10
10 1 -3 -2 -4 2 3 4 5 9 10 7 6 4 8 8 1 5 -6 3 -0 -11 -15 -13 -5 1 6 6 5 4 4 5 5 5 4 5 6 6 7 7 8 9 9 10
4 6 -2 -0 9 10 9 9 10 9 9 8 7 7 3 -1 -4 0 -1 -8 -10 -6 -8 -1 3 5 6 5 4 4 4 5 2 2 1 4 5 4 5 6 7 8 9 8
7 7 2 11 9 6 6 6 5 8 8 11 6 -2 -6 -7 -6 -7 -8 -11 -10 -4 2 5 6 6 7 6 5 5 5 6 5 5 5 6 6 4 3 5 7 7 7 7
-0 7 9 11 8 5 5 6 5 7 9 -1 -2 -8 -7 -3 -7 -8 -2 -7 -2 2 4 4 6 5 6 6 6 6 6 6 5 5 6 6 6 3 3 3 6 7 6 7
Lifted_Index
15 15 15 15 15 15 15 15 14 13 11 9 8 7 7 8 8 8 8 7 8 7 7 5 4 4 4 4 3 3 2 2 3 4 3 2 2 3 3 3 3 3 3 3
15 15 14 14 13 13 13 13 12 11 10 9 8 7 7 7 7 7 7 7 7 7 6 5 5 4 4 4 3 3 2 2 2 3 3 2 2 2 2 3 3 3 3 3
14 14 13 12 10 10 10 10 9 8 8 7 7 6 6 6 5 5 6 6 6 6 5 5 5 5 4 4 4 4 2 1 1 1 2 2 2 1 1 1 2 2 3 3
13 12 11 9 8 7 8 8 8 7 6 6 5 5 5 4 4 4 5 5 5 5 5 5 5 5 5 5 5 4 3 2 1 1 2 2 2 1 1 1 1 1 1 1
10 10 8 7 6 6 7 7 6 6 5 4 4 4 3 3 3 3 3 4 4 4 5 5 5 6 6 6 6 5 4 2 1 2 3 3 3 2 1 1 0 0 1 0
9 8 7 6 5 6 6 6 5 4 4 3 3 3 2 2 2 2 2 2 2 3 3 4 5 5 6 6 6 6 5 3 2 2 2 3 3 3 2 1 1 1 1 1
8 7 7 6 5 5 5 5 4 4 3 3 3 2 2 1 1 1 1 1 1 2 2 2 3 4 4 5 5 5 5 4 3 2 2 2 3 3 3 2 1 1 2 2
7 7 6 5 5 4 4 4 4 3 3 3 2 2 1 1 0 0 0 1 1 2 2 1 2 2 2 3 3 4 4 4 4 2 2 2 2 3 4 3 3 3 4 4
7 6 6 5 5 4 4 4 3 3 3 2 2 1 1 1 1 1 1 1 2 2 1 1 1 1 1 1 2 2 3 3 3 2 2 2 3 4 5 4 4 6 7 7
6 6 6 5 5 4 4 4 3 3 3 2 1 1 1 1 1 1 1 2 2 2 1 1 1 1 1 1 1 1 1 2 2 2 1 2 4 5 5 4 5 8 9 9
6 6 5 5 4 4 4 4 3 3 3 2 1 1 1 1 1 1 2 2 2 2 2 1 1 1 1 1 1 1 1 1 1 1 1 3 5 6 6 7 8 9 10 10
6 5 5 5 4 4 4 4 4 4 3 2 1 1 1 1 1 2 2 2 2 2 2 2 1 1 1 0 1 1 1 1 1 1 2 5 6 7 8 9 10 10 10 10
5 5 5 4 4 4 4 5 4 4 4 3 2 1 1 1 2 2 2 2 2 2 2 2 1 1 1 0 0 1 1 2 2 2 3 5 7 8 9 9 9 10 10 11
5 5 5 4 4 4 4 5 5 5 4 3 2 2 1 1 2 2 2 1 1 1 1 1 1 1 1 1 0 0 1 1 1 2 4 5 7 8 9 9 9 9 10 10
5 5 5 4 4 4 5 5 5 5 4 4 3 2 2 2 2 2 1 1 1 1 1 1 1 1 1 1 1 1 2 3 2 3 4 6 7 8 9 8 9 9 9 10
5 5 4 4 5 5 5 5 5 5 5 4 3 3 2 2 2 2 1 1 1 1 1 1 1 2 2 1 1 3 5 5 5 5 6 7 7 8 8 8 8 9 9 9
5 5 4 4 5 5 5 5 5 5 5 4 4 3 3 3 2 2 2 2 2 2 2 2 2 3 2 2 3 5 7 7 8 8 8 7 8 8 8 8 8 8 9 9
5 5 4 4 5 5 6 6 5 5 5 5 4 3 3 4 3 2 2 2 2 2 2 2 3 3 3 3 4 6 7 8 8 9 9 8 8 8 8 8 8 7 7 8
5 5 5 5 5 6 6 6 6 6 6 5 5 4 4 4 4 3 3 2 2 2 3 3 3 3 4 5 6 8 8 8 8 8 8 8 8 8 8 8 8 8 7 7
6 5 5 5 6 7 6 6 6 6 6 6 6 6 5 5 4 3 3 3 2 2 2 3 3 4 6 7 8 9 9 9 9 9 8 8 8 8 8 8 9 8 8 8
6 6 6 6 6 6 6 6 6 6 6 6 6 6 6 6 5 4 4 3 3 2 3 3 3 4 7 8 9 10 10 10 10 9 9 9 9 9 9 9 9 9 9 9
6 6 6 6 6 5 5 5 5 5 6 6 7 7 7 7 6 5 4 4 3 3 3 3 3 5 7 9 9 10 10 10 10 10 10 10 10 10 10 10 10 10 10 10
6 5 5 5 5 4 4 4 4 5 6 6 7 7 7 7 7 6 5 4 4 4 4 4 5 7 8 9 9 10 10 10 10 10 10 10 10 10 10 10 10 10 10 10
6 5 4 4 4 4 4 4 4 5 6 7 7 7 7 7 6 6 5 5 5 4 4 4 6 8 9 9 9 9 10 10 10 10 10 10 10 10 10 10 10 10 10 10
5 5 4 4 4 4 4 5 5 6 7 7 7 6 6 6 6 5 5 5 4 4 5 6 8 9 9 9 9 9 9 10 10 10 10 10 10 10 10 10 11 10 10 10
5 5 4 4 4 4 5 5 6 7 7 7 6 6 6 6 5 5 5 5 5 6 7 9 10 10 10 10 10 10 10 10 10 10 10 10 10 10 10 11 11 11 11 11
5 5 5 5 5 5 5 5 6 7 7 6 6 5 5 5 5 5 5 5 6 8 9 10 10 10 10 10 10 10 10 10 10 10 10 10 10 10 10 11 11 11 11 11